[Iaude] MPEC O104: 2024 OY [a=1.89,e=0.59,i=13.4,H=20.0,PHA]
    mpec at cfa.harvard.edu 
    mpec at cfa.harvard.edu
       
    Tue Jul 30 20:54:28 EDT 2024
    
    
  
M.P.E.C. 2024-O104                                Issued 2024 July 31, 00:53 UT
     The Minor Planet Electronic Circulars contain information on unusual
         minor planets, routine data on comets and natural satellites,
         and occasional editorial announcements.  They are published
    on behalf of Division F of the International Astronomical Union by the
          Minor Planet Center, Smithsonian Astrophysical Observatory,
                          Cambridge, MA 02138, U.S.A.
			  
             Prepared using the Tamkin Foundation Computer Network
                              MPC at CFA.HARVARD.EDU
            URL https://www.minorplanetcenter.net/    ISSN 1523-6714
                                    2024 OY                                     
Observations:
     K24O00Y  C2024 07 01.51971722 48 44.290-04 45 29.34         22.61GVEO104F52
     K24O00Y  C2024 07 01.53160122 48 44.816-04 45 18.62         22.44GVEO104F52
     K24O00Y  C2024 07 01.54345622 48 45.310-04 45 07.61         22.51GVEO104F52
     K24O00Y  C2024 07 09.55077822 54 24.483-02 34 09.14         22.38GVEO104F51
     K24O00Y  C2024 07 09.57446422 54 25.294-02 33 43.92         21.70GVEO104F51
     K24O00Y  C2024 07 09.58630822 54 25.684-02 33 31.72         20.94GVEO104F51
     K24O00Y* C2024 07 29.50981423 01 39.072+04 31 53.55         21.38wXEO104F52
     K24O00Y  C2024 07 29.52186723 01 39.036+04 32 12.67         21.49wXEO104F52
     K24O00Y  C2024 07 29.53390423 01 38.990+04 32 31.61         21.21wXEO104F52
     K24O00Y  C2024 07 29.58798223 01 38.841+04 33 58.35         20.66GVEO104F52
     K24O00Y  C2024 07 29.58863623 01 38.815+04 33 59.45         20.56GVEO104F52
     K24O00Y KB2024 07 30.33962 23 01 40.082+04 54 08.17         21.0 RZEO104H36
     K24O00Y KB2024 07 30.36399 23 01 39.986+04 54 47.95         21.2 RZEO104H36
     K24O00Y 3C2024 07 30.57919123 01 39.668+05 00 44.23         20.96GVEO104T14
     K24O00Y 3C2024 07 30.58016723 01 39.665+05 00 45.84         20.92GVEO104T14
     K24O00Y 3C2024 07 30.58115523 01 39.656+05 00 47.45         20.93GVEO104T14
     K24O00Y 3C2024 07 30.58213723 01 39.652+05 00 49.05         20.95GVEO104T14
Observer details:
F51 Pan-STARRS 1, Haleakala.  Observers J. Herman, T. Lowe, P. Minguez, A.
    Schultz, I. Smith.  Measurers K. Chambers, T. de Boer, J. Fairlamb, H.
    Gao, M. Huber, C.-C. Lin, E. Magnier, Y. Ramanjooloo, R. Wainscoat, R.
    Weryk.  1.8-m Ritchey-Chretien + CCD.
F52 Pan-STARRS 2, Haleakala.  Observers J. Herman, T. Lowe, P. Minguez, A.
    Schultz, I. Smith.  Measurers K. Chambers, T. de Boer, J. Fairlamb, H.
    Gao, M. Huber, C.-C. Lin, E. Magnier, Y. Ramanjooloo, R. Wainscoat, R.
    Weryk.  1.8-m Ritchey-Chretien + CCD.
H36 Sandlot Observatory, Scranton.  Observer G. Hug.  0.56-m f/4.25 reflector
    + CMO.
T14 Canada-France-Hawaii Telescope, Maunakea.  Observers R. Wainscoat, J.
    Silva, V. Khatu.  Measurers R. Weryk, R. Wainscoat.  3.6-m f/4.1 reflector
    + CCD.
Orbital elements:
2024 OY                                             PHA, Earth MOID = 0.0472 AU
Epoch 2024 Oct. 17.0 TT = JDT 2460600.5                 Veres                   
M 350.61816              (2000.0)            P               Q                  
n   0.37897476     Peri.  128.03883     +0.27653022     -0.94203235             
a   1.8911640      Node   304.85781     +0.79313536     +0.33536933             
e   0.5936378      Incl.   13.38923     +0.54264845     -0.01012232             
P   2.60           H   20.01          G   0.15           U   7                  
Residuals in seconds of arc
240701 F52  0.1+  0.1+    240729 F52  0.1-  0.2+    240730 H36  0.3+  0.1+
240701 F52  0.1+  0.1-    240729 F52  0.0   0.0     240730 T14  0.0   0.0
240701 F52  0.3-  0.0     240729 F52  0.1-  0.3-    240730 T14  0.1+  0.0
240709 F51  0.0   0.2-    240729 F52  0.3+  0.1+    240730 T14  0.0   0.0
240709 F51  0.1+  0.3+    240729 F52  0.1-  0.2+    240730 T14  0.1+  0.0
240709 F51  0.0   0.1+    240730 H36  0.1+  0.1+
Ephemeris:
2024 OY                  a,e,i = 1.89, 0.59, 13                  q = 0.7685
Date    TT    R. A. (2000) Decl.     Delta      r    Elong.  Phase     V
2024 07 01    22 48 19.4 -04 53 26   1.0593  1.7767   117.7    30.4    22.7
...
2024 07 16    22 57 57.7 -00 35 13   0.8236  1.6555   127.9    29.0    22.0
...
2024 07 24    23 00 51.6 +02 15 04   0.7079  1.5883   133.5    27.7    21.5
...
2024 07 30    23 01 39.7 +04 45 03   0.6263  1.5367   137.6    26.5    21.1
2024 07 31    23 01 39.5 +05 12 21   0.6132  1.5280   138.2    26.3    21.1
2024 08 01    23 01 36.7 +05 40 23   0.6002  1.5193   138.9    26.1    21.0
...
2024 08 07    23 00 19.7 +08 46 12   0.5253  1.4665   142.6    24.9    20.6
...
2024 08 15    22 55 20.5 +13 53 52   0.4344  1.3949   146.2    23.8    20.0
...
2024 08 30    22 29 18.9 +28 23 08   0.2961  1.2578   142.6    29.2    19.1
M. P. C. Staff               (C) Copyright 2024 MPC           M.P.E.C. 2024-O104
    
    
More information about the Iaude
mailing list